Weather History for Fort Myers Airport, FL

Change the Weather History Date:

Thursday, January 3, 2013

  Actual Average Record
Temperature  
Mean Temperature 70 °F -  
Max Temperature 81 °F 75 °F 87 °F (1982)
Min Temperature 59 °F 55 °F 30 °F (2008)
Cooling Degree Days 5    
Growing Degree Days 20 (Base 50)    
Moisture  
Dew Point 62 °F    
Average Humidity 89    
Maximum Humidity 100    
Minimum Humidity 47    
Precipitation  
Precipitation 0.00 in - - ()
Sea Level Pressure  
Sea Level Pressure 30.08 in    
Wind  
Wind Speed 2 mph (SSE)    
Max Wind Speed 16 mph    
Max Gust Speed 18 mph    
Visibility 4 miles    
Events Fog    
Averages and records for this station are not official NWS values.
T = Trace of Precipitation, MM = Missing Value Source: NWS Daily Summary

Daily Weather History Graph

Daily Weather History Graph

Search for Another Location

Airport:

Trip Planner

Search our weather history database for the weather conditions in past years. The results will help you decide how hot, cold, wet, or windy it might be!

Date:

Astronomy

Jan. 03, 2013 Rise Set
Actual Time 7:15 AM EST 5:47 PM EST
Civil Twilight 6:50 AM EST 6:12 PM EST
Nautical Twilight 6:21 AM EST 6:41 PM EST
Astronomical Twilight 5:53 AM EST 7:09 PM EST
Moon 11:41 PM EST (1/3) 11:03 AM EST (1/3)
Length of Visible Light 11h 22m
Length of Day
10h 31m
Waning Gibbous, 65% of the Moon is Illuminated
Jan 3
Waning Gibbous
Jan 4
Last Quarter
Jan 11
New
Jan 18
First Quarter
Jan 26
Full

Hourly Weather History & Observations

Time (EST) Temp. Heat Index Dew Point Humidity Pressure Visibility Wind Dir Wind Speed Gust Speed Precip Events Conditions
12:05 AM 62.6 °F - 62.6 °F 100% 30.07 in 0.2 mi Calm Calm - N/A Fog Fog
12:37 AM 62.6 °F - 60.8 °F 94% 30.06 in 0.2 mi Calm Calm - N/A Fog Fog
12:53 AM 63.0 °F - 62.1 °F 97% 30.06 in 0.2 mi Calm Calm - N/A Fog Fog
1:05 AM 62.6 °F - 62.6 °F 100% 30.07 in 0.2 mi Calm Calm - N/A Fog Fog
1:53 AM 63.0 °F - 62.1 °F 97% 30.06 in 0.2 mi Calm Calm - N/A Fog Fog
2:09 AM 62.6 °F - 60.8 °F 94% 30.07 in 0.5 mi Calm Calm - N/A Fog Fog
2:17 AM 62.6 °F - 60.8 °F 94% 30.07 in 0.5 mi Calm Calm - N/A Fog Fog
2:28 AM 62.6 °F - 60.8 °F 94% 30.06 in 0.2 mi Calm Calm - N/A Fog Fog
2:53 AM 60.8 °F - 60.8 °F 100% 30.06 in 0.2 mi ESE 4.6 mph - N/A Fog Fog
3:51 AM 62.6 °F - 60.8 °F 94% 30.06 in 0.2 mi Calm Calm - N/A Fog Fog
3:53 AM 62.1 °F - 61.0 °F 96% 30.06 in 0.2 mi ESE 3.5 mph - N/A Fog Fog
4:44 AM 62.6 °F - 60.8 °F 94% 30.06 in 0.2 mi Calm Calm - N/A Fog Fog
4:53 AM 61.0 °F - 61.0 °F 100% 30.05 in 0.2 mi ENE 3.5 mph - N/A Fog Fog
5:06 AM 60.8 °F - 60.8 °F 100% 30.06 in 0.5 mi NNE 3.5 mph - N/A Fog Fog
5:28 AM 60.8 °F - 60.8 °F 100% 30.06 in 0.2 mi East 4.6 mph - N/A Fog Fog
5:53 AM 61.0 °F - 60.1 °F 97% 30.06 in 0.2 mi Calm Calm - N/A Fog Fog
6:06 AM 60.8 °F - 60.8 °F 100% 30.07 in 0.2 mi Calm Calm - N/A Fog Fog
6:28 AM 60.8 °F - 59.0 °F 94% 30.07 in 0.2 mi Calm Calm - N/A Fog Fog
6:35 AM 60.8 °F - 60.8 °F 100% 30.08 in 0.5 mi Calm Calm - N/A Fog Fog
6:53 AM 59.0 °F - 59.0 °F 100% 30.07 in 0.5 mi Calm Calm - N/A Fog Fog
7:22 AM 59.0 °F - 59.0 °F 100% 30.09 in 0.2 mi Calm Calm - N/A Fog Fog
7:53 AM 59.0 °F - 59.0 °F 100% 30.09 in 0.2 mi Calm Calm - N/A Fog Fog
8:02 AM 60.8 °F - 60.8 °F 100% 30.10 in 1.0 mi Calm Calm - N/A   Mist
8:05 AM 60.8 °F - 60.8 °F 100% 30.10 in 3.0 mi Calm Calm - N/A   Mostly Cloudy
8:53 AM 63.0 °F - 63.0 °F 100% 30.10 in 7.0 mi Calm Calm - N/A   Mostly Cloudy
9:08 AM 64.4 °F - 64.4 °F 100% 30.11 in 10.0 mi ESE 3.5 mph - N/A   Scattered Clouds
9:53 AM 70.0 °F - 66.0 °F 87% 30.11 in 10.0 mi SE 4.6 mph - N/A   Clear
10:53 AM 73.9 °F - 66.9 °F 79% 30.11 in 10.0 mi SSE 4.6 mph - N/A   Clear
11:53 AM 77.0 °F - 66.9 °F 71% 30.08 in 10.0 mi SSE 12.7 mph 16.1 mph N/A   Scattered Clouds
12:53 PM 79.0 °F - 64.0 °F 60% 30.04 in 10.0 mi South 10.4 mph - N/A   Partly Cloudy
1:53 PM 81.0 °F 82.2 °F 63.0 °F 54% 30.03 in 10.0 mi SW 11.5 mph 18.4 mph N/A   Scattered Clouds
2:53 PM 81.0 °F 81.6 °F 60.1 °F 49% 30.03 in 10.0 mi WSW 11.5 mph - N/A   Clear
3:53 PM 80.1 °F 80.6 °F 57.9 °F 47% 30.03 in 10.0 mi SW 16.1 mph - N/A   Clear
4:53 PM 78.1 °F - 64.0 °F 62% 30.05 in 10.0 mi SW 11.5 mph - N/A   Clear
5:53 PM 73.9 °F - 64.9 °F 73% 30.07 in 10.0 mi SW 5.8 mph - N/A   Clear
6:53 PM 73.4 °F - 66.2 °F 78% 30.10 in 10.0 mi Calm Calm - N/A   Overcast
7:53 PM 71.1 °F - 64.9 °F 81% 30.10 in 10.0 mi South 4.6 mph - N/A   Mostly Cloudy
8:53 PM 70.0 °F - 66.0 °F 87% 30.11 in 10.0 mi Calm Calm - N/A   Clear
9:53 PM 69.1 °F - 66.0 °F 90% 30.12 in 10.0 mi South 4.6 mph - N/A   Clear
10:53 PM 69.1 °F - 66.9 °F 93% 30.13 in 10.0 mi Calm Calm - N/A   Scattered Clouds
11:53 PM 70.0 °F - 68.0 °F 93% 30.12 in 10.0 mi South 3.5 mph - N/A   Overcast